Miscellaneous Local Product
Issued by NWS North Platte, NE

Home | Current Version | Previous Version | Graphics & Text | Print | Product List | Glossary On
Versions: 1 2 3 4 5 6 7 8 9 10 11 12 13 14 15 16 17 18 19 20 21 22 23 24 25 26 27 28 29 30 31 32 33 34 35 36 37 38 39 40 41 42 43 44 45 46 47 48 49 50
648
AXUS43 KLBF 240010
MISLBF


WESTERN AND NORTH CENTRAL NEBRASKA HOURLY WEATHER ROUNDUP
NATIONAL WEATHER SERVICE NORTH PLATTE NE
700 PM CDT THU MAR 23 2017

NOTE: "FAIR" INDICATES FEW OR NO CLOUDS BELOW 12,000 FEET WITH NO
SIGNIFICANT WEATHER AND/OR OBSTRUCTIONS TO VISIBILITY.

NOTE: STATIONS NOT REPORTING VARIABLES SUCH AS SKY/WEATHER OR
PRESSURE ARE PROVIDED BY RAWS AND APRS NETWORKS AND ARE NOT UNDER
NATIONAL WEATHER SERVICE QUALITY CONTROL.

...OBSERVATIONS IN AND NEAR THE EASTERN PANHANDLE OF NEBRASKA...

CITY           SKY/WX    TMP DP  RH WIND       PRES   REMARKS
PINE RIDGE     CLOUDY    53  43  68 N22G29    29.72R
CHADRON        CLOUDY    49  42  77 NE20G33   29.73R
ALLIANCE       CLOUDY    60  37  42 NW20G36   29.64R
SIDNEY         CLOUDY    69  35  28 E15       29.55R
$$

...OBSERVATIONS IN NORTHERN NEBRASKA AND FAR SOUTHERN SOUTH DAKOTA...

CITY           SKY/WX    TMP DP  RH WIND       PRES   REMARKS
WINNER         FAIR      61  48  62 E7        29.62R
VALENTINE      CLEAR     65  44  46 NE5       29.61R
THEDFORD       PTCLDY    69  51  52 SE7       29.58R
AINSWORTH      CLEAR     60  51  71 CALM      29.62R
O`NEILL        CLOUDY    57  56  95 CALM      29.64R FOG
ORD            MOCLDY    66  57  72 E6        29.55F
BROKEN BOW     CLOUDY    67  31  26 NE9       29.52F
VALENTINE NWR    N/A     67  49  52 CALM        N/A
HALSEY           N/A     69  53  57 E3          N/A
BUTTE            N/A     52  51  95 SE6         N/A
CHAMBERS         N/A     59  55  88 W3          N/A
EWING            N/A     60  56  86 CALM        N/A
$$

...OBSERVATIONS IN SOUTHWEST NEBRASKA AND FAR NORTHEAST COLORADO...

CITY           SKY/WX    TMP DP  RH WIND       PRES   REMARKS
WRAY           FAIR      81  21  11 S8G20     29.47
HOLYOKE        FAIR      73  45  35 E14       29.49S
IMPERIAL       CLOUDY    76  28  17 SE20G47   29.47F
OGALLALA       CLOUDY    73  45  36 E13G22    29.51S
NORTH PLATTE   SUNNY     69  54  58 NE8       29.50F
MCCOOK         SUNNY     81  52  36 SE21G33   29.43F
LEXINGTON      CLOUDY    78  51  39 S24G31    29.47F
STAPLETON        N/A     63  56  78 NE3         N/A
GOTHENBURG       N/A     80  51  35 CALM        N/A
CALLAWAY         N/A     67  60  78 E8          N/A
$$

...OBSERVATIONS IN CENTRAL LINCOLN COUNTY AREA...

CITY           SKY/WX    TMP DP  RH WIND       PRES   REMARKS
N.P. AIRPORT   SUNNY     69  54  58 NE8       29.50F
N.P. DOWNTOWN    N/A     68  57  68 NE6         N/A
N.P. SOUTHEAST   N/A     68  56  66 CALM        N/A
N.P. HILLCREST   N/A     68  57  68 NE13        N/A
$$

...SOME OBSERVATIONS FROM AROUND THE REGION...

CITY           SKY/WX    TMP DP  RH WIND       PRES   REMARKS
DENVER         CLOUDY    72   9   8 W9        29.54R
LIMON          CLOUDY    64  23  21 N5        29.56F
ASPEN          LGT SNOW  33  33 100 N7        29.82R VSB 1   WCI  27
LARAMIE        CLOUDY    53  15  22 W15G26    29.72R
GILLETTE       CLOUDY    40  50 100 N13       29.87R WCI  32
CHEYENNE       CLOUDY    59  23  25 NW22G29   29.64S
SCOTTSBLUFF    CLOUDY    61  42  49 N17       29.61R
GRAND ISLAND   CLOUDY    72  58  61 S17G30    29.56F
OMAHA          CLOUDY    74  52  46 S17       29.65R
SIOUX FALLS    CLOUDY    48  41  76 E8        29.67F
PIERRE         CLOUDY    57  43  59 SE3       29.66R
RAPID CITY     CLOUDY    46  39  76 N22       29.78R
BISMARCK       LGT RAIN  42  39  89 NW7       29.80R FOG
KANSAS CITY    PTCLDY    76  46  34 S22G33    29.77R
HILL CITY      CLOUDY    79  52  38 S25G41    29.51F HAZE
WICHITA        PTCLDY    79  49  34 S24G36    29.67F
DODGE CITY     CLOUDY    77  44  30 S26G43    29.57F HAZE
OKLAHOMA CITY  PTCLDY    79  46  31 S30G40    29.75F
DALLAS         PTCLDY    82  50  32 S29G38    29.85F
AMARILLO       CLOUDY    74  49  41 S33G46    29.57F
$$




USA.gov is the U.S. government's official web portal to all federal, state and local government web resources and services.